{"data":{"norad_id":54188,"epoch":"2026-09-20T06:39:30.928320Z","epoch_age_seconds":108536,"freshness":"FRESH","line1":"1 54188U 22141AH  26263.27744130  .00000006  00000+0  11325-4 0  9994","line2":"2 54188  53.1613 188.7274 0001238  80.6915 279.4227 15.34393161215532","mean_motion":15.34393161,"eccentricity":0.0001238,"inclination_deg":53.1613,"raan_deg":188.7274,"arg_perigee_deg":80.6915,"mean_anomaly_deg":279.4227,"bstar":1.1325e-5,"rev_number":21553,"period_min":93.848176373617,"perigee_km":461.87666869364,"apogee_km":463.57046577008,"semimajor_km":6840.8605672319,"source":"CELESTRAK","updated_at":"2026-09-21T09:00:33.094239Z"}}